Regional Weather Roundup
Issued by NWS Goodland, KS

Home | Current Version | Previous Version | Graphics & Text | Print | Product List | Glossary On
Versions: 1 2 3 4 5 6 7 8 9 10 11 12 13 14 15 16 17 18 19 20 21 22 23 24 25 26 27 28 29 30 31 32 33 34 35 36 37 38 39 40 41 42 43 44 45 46 47 48 49 50
000
ASUS43 KGLD 042108
RWRGLD

GOODLAND FORECAST AREA HOURLY WEATHER ROUNDUP
NATIONAL WEATHER SERVICE GOODLAND KS
300 PM MDT TUE AUG 04 2015

...OFFICIAL OBSERVATIONS...

CITY           SKY/WX    TMP DP  RH WIND       PRES   REMARKS
GOODLAND KS    MOSUNNY   87  57  35 NE17G24   29.96S
HILL CITY KS   CLOUDY    80  67  64 E17       29.92R
IMPERIAL NEB   CLOUDY    67  60  78 NE5       29.99R
MCCOOK NEB     LGT RAIN  62  61  96 CALM      29.97F
AKRON CO       CLOUDY    78  50  37 N16       30.04R
BURLINGTON CO  SUNNY     86  53  32 N12G20    29.99S
LIMON CO       SUNNY     89  38  16 W13G26    30.06F
$$

...UNOFFICIAL OBSERVATIONS...

CITY           SKY/WX    TMP DP  RH WIND       PRES   REMARKS
COLBY KS       SUNNY     70  70 100 NE8       29.96F
NORTON KS      MOSUNNY   73  63  68 E6        29.93R
SHARON SPRINGS   N/A     92  59  32 N6G14       N/A
KIT CARSON CO    N/A     92  52  25 MISG        N/A
YUMA CO          N/A     75  63  66 E12G18      N/A
$$


USA.gov is the U.S. government's official web portal to all federal, state and local government web resources and services.